World > North America > United States > Alaska
Hourly Weather in New Stuyahok, AlaskaNew Stuyahok, Alaska Hourly Weather

New Stuyahok, AK Hourly Weather

Hourly Weather New Stuyahok, AlaskaHourly Weather in New Stuyahok, AK
Lat: 59.47N, Lon: 157.26W  ICAO: PANW
Web Search

Helpful Tip: Abbreviated, 7 Day, 14 Day Forecasts. There is a weather forecast for every taste.

Feedback

New Stuyahok Hourly Weather

36 Hour Weather Scroll   °F Click to change New Stuyahok hourly weather to Imperial units.Click to change New Stuyahok hourly weather to Metric units. °C
Currently, Light Rain, temperature is 37°F3°C, dew point 32°F0°C, humidity 82%. Wind direction is E at 28 mph45 km/h with visibility of 10.00 mi16 km. Barometric pressure is 29.15 in987 mb.

Jan 24
4:00 AM

Jan 24
5:00 AM

Jan 24
6:00 AM

Jan 24
7:00 AM

Jan 24
8:00 AM

Jan 24
9:00 AM

Jan 24
10:00 AM

Jan 24
11:00 AM

Jan 24
NOON

Jan 24
1:00 PM

Jan 24
2:00 PM

Jan 24
3:00 PM

Jan 24
4:00 PM

Jan 24
5:00 PM

Jan 24
6:00 PM

Jan 24
7:00 PM

Jan 24
8:00 PM

Jan 24
9:00 PM

Jan 24
10:00 PM

Jan 24
11:00 PM

Jan 25
MIDNIGHT

Jan 25
1:00 AM

Jan 25
2:00 AM

Jan 25
3:00 AM

Jan 25
4:00 AM

Jan 25
5:00 AM

Jan 25
6:00 AM

Jan 25
7:00 AM

Jan 25
8:00 AM

Jan 25
9:00 AM

Jan 25
10:00 AM

Jan 25
11:00 AM

Jan 25
NOON

Jan 25
1:00 PM

Jan 25
2:00 PM

Jan 25
3:00 PM
Cloudy Cloudy Cloudy Cloudy Cloudy Cloudy Cloudy Cloudy Cloudy Cloudy Cloudy Cloudy Cloudy Cloudy Cloudy Cloudy Cloudy Cloudy Cloudy Partly Cloudy Partly Cloudy Partly Cloudy Clear Clear Clear Clear Clear Clear Clear Clear Clear Clear Clear Clear Clear Clear
Cloudy Cloudy Cloudy Cloudy Cloudy Cloudy Cloudy Cloudy Cloudy Cloudy Cloudy Cloudy Cloudy Cloudy Cloudy Cloudy Cloudy Cloudy Cloudy Partly Cloudy Partly Cloudy Partly Cloudy Clear Clear Clear Clear Clear Clear Clear Clear Clear Clear Clear Clear Clear Clear
38°F3°C 38°F3°C 38°F3°C 36°F2°C 35°F2°C 33°F1°C 31°F-1°C 30°F-1°C 28°F-2°C 27°F-3°C 25°F-4°C 24°F-4°C 23°F-5°C 23°F-5°C 22°F-6°C 21°F-6°C 21°F-6°C 20°F-7°C 19°F-7°C 17°F-8°C 16°F-9°C 15°F-9°C 15°F-9°C 14°F-10°C 13°F-11°C 11°F-12°C 10°F-12°C 9°F-13°C 8°F-13°C 7°F-14°C 8°F-13°C 8°F-13°C 9°F-13°C 10°F-12°C 11°F-12°C 12°F-11°C
Rain Rain Rain Rain Rain Rain Rain Snow Snow Snow Snow Snow Snow Snow Snow Snow Snow Snow - - - - - - - - - - - - - - - - - -
92% 92% 92% 92% 92% 92% 69% 69% 69% 69% 69% 69% 35% 35% 35% 35% 35% 35% 17% 17% 17% 17% 17% 17% 9% 9% 9% 9% 9% 9% 5% 5% 5% 5% 5% 5%
34°F1°C 34°F1°C 34°F1°C 33°F1°C 32°F0°C 31°F-1°C 29°F-2°C 28°F-2°C 26°F-3°C 25°F-4°C 23°F-5°C 22°F-6°C 21°F-6°C 21°F-6°C 20°F-7°C 19°F-7°C 19°F-7°C 18°F-8°C 17°F-8°C 15°F-9°C 14°F-10°C 13°F-11°C 13°F-11°C 12°F-11°C 10°F-12°C 9°F-13°C 7°F-14°C 6°F-14°C 4°F-16°C 3°F-16°C 3°F-16°C 4°F-16°C 4°F-16°C 4°F-16°C 5°F-15°C 5°F-15°C
85% 85% 85% 89% 89% 92% 92% 92% 92% 92% 92% 92% 92% 92% 92% 92% 92% 92% 92% 92% 92% 92% 92% 92% 87% 91% 87% 87% 83% 83% 80% 83% 80% 76% 76% 73%
SE SE SE SE SE SSE SSE SSE S S SSE SW SW SW SW SSW SSW W WNW NW NW NW NW NW NW NW NW NNW NNW NNW NNW NNW NNW NNW NNW NNW
26 mph 22 mph 22 mph 22 mph 18 mph 18 mph 18 mph 15 mph 15 mph 15 mph 11 mph 11 mph 11 mph 10 mph 10 mph 10 mph 9 mph 9 mph 9 mph 8 mph 8 mph 8 mph 6 mph 6 mph 6 mph 5 mph 5 mph 5 mph 6 mph 6 mph 6 mph 6 mph 6 mph 6 mph 5 mph 5 mph
6 mi10 km 5 mi8 km 5 mi8 km 5 mi8 km 5 mi8 km 5 mi8 km 3 mi5 km 3 mi5 km .75 mi1 km 3 mi5 km 3 mi5 km 5 mi8 km 6 mi10 km 6 mi10 km 10 mi16 km 10 mi16 km 10 mi16 km 10 mi16 km 10 mi16 km 10 mi16 km 10 mi16 km 10 mi16 km 10 mi16 km 10 mi16 km 10 mi16 km 10 mi16 km 10 mi16 km 10 mi16 km 10 mi16 km 10 mi16 km 10 mi16 km 10 mi16 km 10 mi16 km 10 mi16 km 10 mi16 km 10 mi16 km
Hour (AST)
Weather
Clouds
Temperature
Precip. Type
POP
Dewpoint
Humidity
Wind Direction
Wind Speed
Visibility
POP = Probability of Precipitation. ** Indicates missing data/values from model statistics.

24 Hour Forecast

Tonight - Rain. Lows in the upper 20s to lower 40s. Southeast wind 25 to 40 mph with gusts to 60 mph.
Monday - Rain in the morning, then rain and snow likely in the afternoon. Snow accumulation up to 2 inches. Highs in the lower 30s to lower 40s. South wind 10 to 25 mph.

48 Hour Forecast API Feed


Mon, Jan 24
4:00 am

Mon, Jan 24
5:00 am

Mon, Jan 24
6:00 am

Mon, Jan 24
7:00 am

Mon, Jan 24
8:00 am

Mon, Jan 24
9:00 am

Mon, Jan 24
10:00 am

Mon, Jan 24
11:00 am

Mon, Jan 24
Noon

Mon, Jan 24
1:00 pm

Mon, Jan 24
2:00 pm

Mon, Jan 24
3:00 pm

Mon, Jan 24
4:00 pm

Mon, Jan 24
5:00 pm

Mon, Jan 24
6:00 pm

Mon, Jan 24
7:00 pm

Mon, Jan 24
8:00 pm

Mon, Jan 24
9:00 pm

Mon, Jan 24
10:00 pm

Mon, Jan 24
11:00 pm

Tue, Jan 25
Midnight

Tue, Jan 25
1:00 am

Tue, Jan 25
2:00 am

Tue, Jan 25
3:00 am

Tue, Jan 25
4:00 am

Tue, Jan 25
5:00 am

Tue, Jan 25
6:00 am

Tue, Jan 25
7:00 am

Tue, Jan 25
8:00 am

Tue, Jan 25
9:00 am

Tue, Jan 25
10:00 am

Tue, Jan 25
11:00 am

Tue, Jan 25
Noon

Tue, Jan 25
1:00 pm

Tue, Jan 25
2:00 pm

Tue, Jan 25
3:00 pm

Tue, Jan 25
4:00 pm

Tue, Jan 25
5:00 pm

Tue, Jan 25
6:00 pm

Tue, Jan 25
7:00 pm

Tue, Jan 25
8:00 pm

Tue, Jan 25
9:00 pm

Tue, Jan 25
10:00 pm

Tue, Jan 25
11:00 pm

Wed, Jan 26
Midnight

Wed, Jan 26
1:00 am

Wed, Jan 26
2:00 am

Wed, Jan 26
3:00 am
Light SleetHeavy SnowLight SleetModerate RainLight SleetHeavy SnowBlizzardBlizzardBlizzardBlizzardBlizzardBlizzardBlizzardCloudyCloudyCloudyCloudyCloudyMistLight SnowLight SnowLight SnowMistMistMistMistMistMistCloudyPartly CloudyPartly CloudyPartly CloudySunnySunnySunnySunnySunnySunnyClearClearClearClearClearClearClearClearClearMist
Light sleet Heavy snow Light sleet Moderate rain Light sleet Heavy snow Blizzard Blizzard Blizzard Blizzard Blizzard Blizzard Blizzard Cloudy Cloudy Cloudy Cloudy Cloudy Mist Light snow Light snow Light snow Mist Mist Mist Mist Mist Mist Cloudy Partly cloudy Partly cloudy Partly cloudy Sunny Sunny Sunny Sunny Sunny Sunny Clear Clear Clear Clear Clear Clear Clear Clear Clear Mist
36°F
2°C
35°F
1°C
34°F
1°C
36°F
2°C
36°F
2°C
34°F
1°C
32°F
0°C
32°F
-0°C
31°F
-1°C
27°F
-3°C
25°F
-4°C
23°F
-5°C
22°F
-6°C
21°F
-6°C
20°F
-7°C
18°F
-8°C
17°F
-8°C
15°F
-9°C
15°F
-10°C
17°F
-9°C
16°F
-9°C
15°F
-9°C
15°F
-9°C
14°F
-10°C
13°F
-11°C
10°F
-12°C
11°F
-12°C
11°F
-12°C
11°F
-11°C
12°F
-11°C
11°F
-12°C
10°F
-12°C
9°F
-13°C
12°F
-11°C
13°F
-11°C
13°F
-10°C
13°F
-10°C
12°F
-11°C
9°F
-13°C
7°F
-14°C
2°F
-17°C
1°F
-17°C
0°F
-18°C
-1°F
-18°C
-2°F
-19°C
-2°F
-19°C
-3°F
-19°C
-3°F
-20°C
33°F
1°C
34°F
1°C
34°F
1°C
36°F
2°C
36°F
2°C
34°F
1°C
32°F
-0°C
31°F
-0°C
31°F
-1°C
26°F
-3°C
23°F
-5°C
21°F
-6°C
20°F
-7°C
19°F
-7°C
18°F
-8°C
16°F
-9°C
15°F
-9°C
14°F
-10°C
14°F
-10°C
16°F
-9°C
15°F
-10°C
14°F
-10°C
14°F
-10°C
13°F
-11°C
11°F
-11°C
10°F
-13°C
10°F
-13°C
10°F
-12°C
10°F
-12°C
10°F
-12°C
9°F
-13°C
8°F
-13°C
7°F
-14°C
9°F
-13°C
9°F
-13°C
10°F
-13°C
9°F
-13°C
8°F
-14°C
5°F
-15°C
4°F
-16°C
-1°F
-18°C
-2°F
-19°C
-2°F
-19°C
-3°F
-19°C
-4°F
-20°C
-4°F
-20°C
-4°F
-20°C
-4°F
-20°C
29.15 in
987 mb
29.15 in
987 mb
29.15 in
987 mb
29.15 in
987 mb
29.18 in
988 mb
29.23 in
990 mb
29.26 in
991 mb
29.32 in
993 mb
29.35 in
994 mb
29.41 in
996 mb
29.44 in
997 mb
29.47 in
998 mb
29.5 in
999 mb
29.53 in
1000 mb
29.56 in
1001 mb
29.62 in
1003 mb
29.65 in
1004 mb
29.68 in
1005 mb
29.74 in
1007 mb
29.77 in
1008 mb
29.83 in
1010 mb
29.85 in
1011 mb
29.91 in
1013 mb
29.94 in
1014 mb
29.97 in
1015 mb
30 in
1016 mb
30.03 in
1017 mb
30.06 in
1018 mb
30.09 in
1019 mb
30.12 in
1020 mb
30.15 in
1021 mb
30.15 in
1021 mb
30.18 in
1022 mb
30.21 in
1023 mb
30.21 in
1023 mb
30.21 in
1023 mb
30.24 in
1024 mb
30.24 in
1024 mb
30.24 in
1024 mb
30.24 in
1024 mb
30.27 in
1025 mb
30.27 in
1025 mb
30.3 in
1026 mb
30.3 in
1026 mb
30.3 in
1026 mb
30.3 in
1026 mb
30.3 in
1026 mb
30.3 in
1026 mb
91%99%99%100%100%99%98%99%98%96%95%94%93%92%92%92%92%93%95%95%95%95%95%95%95%96%96%94%94%93%93%91%89%87%85%84%83%84%85%86%87%88%89%91%92%93%93%94%
ESEESESESSESSSSSSWSSWSSWSSWSSWSSWSSWSSWSSSWNNWNNNNWNWNNWNWNNWNNWNNWNNWNNWNNWNNWNNWNNWNNWNNWNNWNNWNNWNNWNNWNNNWNNNNENNE
22 mph
35 km/h
21 mph
35 km/h
20 mph
32 km/h
23 mph
36 km/h
24 mph
39 km/h
23 mph
36 km/h
21 mph
33 km/h
19 mph
31 km/h
17 mph
28 km/h
17 mph
28 km/h
18 mph
29 km/h
18 mph
30 km/h
18 mph
29 km/h
18 mph
30 km/h
18 mph
28 km/h
15 mph
23 km/h
12 mph
19 km/h
7 mph
12 km/h
3 mph
4 km/h
4 mph
7 km/h
6 mph
10 km/h
5 mph
8 km/h
5 mph
9 km/h
6 mph
9 km/h
6 mph
9 km/h
5 mph
9 km/h
5 mph
9 km/h
6 mph
9 km/h
6 mph
10 km/h
6 mph
10 km/h
7 mph
11 km/h
6 mph
10 km/h
7 mph
11 km/h
7 mph
12 km/h
7 mph
12 km/h
7 mph
12 km/h
7 mph
12 km/h
7 mph
11 km/h
7 mph
11 km/h
7 mph
11 km/h
6 mph
9 km/h
6 mph
9 km/h
5 mph
8 km/h
5 mph
8 km/h
5 mph
8 km/h
5 mph
8 km/h
5 mph
8 km/h
4 mph
7 km/h
54%93%93%87%94%94%0%0%0%0%0%0%0%0%0%0%0%0%0%0%0%0%0%0%0%0%0%0%0%0%0%0%0%0%0%0%0%0%0%0%0%0%0%0%0%0%0%0%
6 mi
9 km
1 mi
2 km
6 mi
9 km
4 mi
7 km
6 mi
9 km
1 mi
2 km
0 mi
0 km
0 mi
0 km
0 mi
0 km
0 mi
0 km
0 mi
0 km
0 mi
0 km
0 mi
0 km
6 mi
10 km
6 mi
10 km
6 mi
10 km
6 mi
10 km
6 mi
10 km
1 mi
2 km
6 mi
10 km
6 mi
10 km
6 mi
10 km
1 mi
2 km
1 mi
2 km
1 mi
2 km
1 mi
2 km
1 mi
2 km
1 mi
2 km
6 mi
10 km
6 mi
10 km
6 mi
10 km
6 mi
10 km
6 mi
10 km
6 mi
10 km
6 mi
10 km
6 mi
10 km
6 mi
10 km
6 mi
10 km
6 mi
10 km
6 mi
10 km
6 mi
10 km
6 mi
10 km
6 mi
10 km
6 mi
10 km
6 mi
10 km
6 mi
10 km
6 mi
10 km
1 mi
2 km

Day/Time
Weather
Condition
Temperature
Dew Point
Pressure
Humidity
Wind Direction
Wind Speed
Prob Precip %
Visibility
Prob Precip % = Probability of Precipitation.